Vertical_Velocity
4 2 -22 0 1 4 7 -3 -1 1 7 1 2 -12 -0 -2 1 2 2 -2 -1 -4 1 -2 -1 -2 -1 -3 -1 -3 1 -6 5 5 -3 12 -8 1 3 4 7 1 -6 6
6 -24 12 4 4 5 7 2 -12 1 3 -0 5 -8 -3 1 -5 0 2 5 -2 -3 -1 -1 -4 -3 -2 -6 0 5 9 12 -7 -0 4 3 -2 -0 -4 4 -2 1 -2 -2
-5 -3 10 -3 2 5 -3 3 -6 -1 7 2 1 -12 -3 4 -2 -5 3 2 -0 -0 -2 -1 1 -0 -2 -0 3 5 -9 -10 -11 -5 14 0 16 -5 -9 -4 -2 -1 3 2
6 7 1 -0 2 8 1 2 1 3 5 -1 -1 -7 -13 -10 -0 -4 1 -9 8 -1 -3 -0 -1 -0 -1 -2 -3 0 5 -6 -3 -1 1 10 0 -2 1 -0 4 -5 -1 0
-17 2 4 3 -6 7 -5 1 3 11 1 6 -4 4 -14 -4 -3 -0 -0 -3 -0 8 -2 -2 1 0 -0 1 1 0 -3 -4 -0 -0 -0 6 5 1 1 0 2 1 -6 -0
-0 6 8 -16 0 3 10 4 4 0 4 5 -9 3 -11 -5 -3 -5 1 5 -4 7 5 -1 -3 0 -0 -0 -1 -0 -0 -1 -4 -0 -6 -1 -8 6 -7 4 -1 0 3 -4
-5 1 3 2 7 12 3 5 1 5 5 -4 2 6 -28 -4 -6 -0 -2 7 -0 2 0 -5 -6 -0 1 3 1 -0 -1 -0 1 5 1 -5 -15 -10 7 2 -6 -1 2 -5
-6 3 -4 -2 -1 -8 -3 2 -8 -4 -2 -3 2 -3 -28 -3 -4 2 -2 -0 1 -2 3 -3 -0 -4 -1 -0 0 1 1 0 -1 -4 -5 -3 -3 0 -2 0 -0 -6 -1 9
-3 -2 5 -6 0 -6 -1 2 -6 4 -0 -1 -1 -3 -8 -12 -1 -1 -1 -5 3 -5 6 2 1 1 -4 -3 -0 2 -0 -2 1 -1 -6 -4 -6 -4 3 1 2 -6 5 -5
1 1 4 8 9 7 0 0 4 4 1 -0 -0 -1 -11 -15 5 4 1 -5 4 -7 -0 3 -6 -2 1 1 0 -1 -1 -1 0 1 2 -0 1 -0 -0 -1 -3 -4 -6 1
5 5 3 9 -4 -9 -1 -1 4 2 5 -1 -0 -7 -13 -3 2 0 7 5 4 1 -2 10 7 1 2 -0 2 3 -2 -0 1 3 2 1 -0 -1 -1 -3 -2 1 4 5
2 2 -1 -7 6 10 17 7 7 7 -1 1 0 -22 -10 -1 -12 6 3 7 4 7 3 -3 2 4 -3 -5 -3 2 4 -2 2 1 -2 -1 7 2 -5 0 4 4 5 4
7 4 0 5 -3 1 5 -0 7 6 4 -4 5 -8 3 6 6 -12 5 5 4 3 6 1 1 2 8 -4 -2 -2 -2 2 2 3 2 -3 -3 -1 3 -7 -45 -12 -11 1
2 -0 1 -3 1 1 -2 0 3 2 3 -6 -5 -4 -12 -2 -5 7 -12 -3 16 6 2 3 -4 0 9 0 -2 -2 -1 -2 -1 -1 0 -3 -4 -1 5 10 6 8 6 -6
4 -4 -7 -2 4 -1 -2 -3 3 2 -1 2 -7 0 -10 -6 -5 -10 -6 -9 -4 -3 7 3 2 -0 5 5 5 4 1 3 0 -2 -6 -1 5 3 3 2 6 9 6 10
-1 -1 -2 -1 -5 -4 -6 -2 -0 1 1 3 0 -5 -6 -13 -5 -9 1 3 -2 2 1 -4 -7 2 0 8 6 7 5 2 9 -0 -5 2 -2 1 2 2 4 2 4 6
-0 2 2 -4 -1 -2 -2 -7 -5 1 -1 1 -0 -1 -10 -12 -13 -4 -7 -9 10 -48 -8 -2 -5 -5 1 -2 4 -8 3 16 6 2 5 -2 -3 -6 0 3 1 7 3 1
-2 2 3 1 -0 2 -5 3 0 -1 2 1 -4 -2 2 -9 -11 2 17 2 -8 20 4 10 18 7 -2 -6 -8 6 0 -2 2 1 6 5 4 8 3 1 3 -1 3 7
1 6 1 1 -1 -4 -7 3 1 5 -7 9 2 -0 4 2 3 3 2 6 -0 -12 -10 -6 -2 7 9 2 4 -5 0 3 1 3 2 7 11 9 8 7 1 -2 -3 2
3 4 8 -1 0 -1 1 7 4 -0 -5 -1 5 -1 -6 4 -1 -4 -0 0 3 1 1 -1 -17 5 2 13 -1 -1 8 8 4 3 2 5 8 6 -4 1 -0 -4 -2 -1
3 4 -2 1 -2 -3 -13 -10 -0 8 2 -1 -1 3 -8 -4 8 -6 -4 4 1 -4 -1 3 8 -22 -12 13 3 6 -0 2 -2 1 4 4 4 6 -1 1 -1 2 -0 -0
-2 -4 -6 7 2 -12 12 3 2 -6 3 0 -4 5 -3 3 8 5 3 -9 -4 -4 3 3 -4 3 -9 -25 -22 -11 3 -12 10 1 5 8 4 -1 1 -0 2 1 -1 -2
-3 -9 -7 -5 -5 5 5 1 -0 -1 -1 7 0 4 -7 -5 0 3 2 -2 -5 -4 4 9 12 7 4 5 1 3 4 9 5 7 5 2 5 -1 -2 5 3 1 2 3
-3 2 -4 14 -4 -3 6 5 -1 -4 -6 -7 2 -4 -1 -3 -1 -2 12 7 2 -6 1 4 5 12 15 9 6 0 2 3 3 4 7 5 2 -12 -1 1 -0 -4 -1 2
0 2 -4 -5 -3 1 -1 -0 1 4 3 -1 -5 -2 0 -0 -6 -2 13 -4 -4 -3 1 3 4 3 -0 -2 12 7 4 -2 8 6 5 6 -8 0 -2 -0 0 -1 -1 4
-2 -2 -0 0 -4 -1 1 -1 6 1 0 2 1 -5 1 4 -9 1 7 -2 7 -26 -4 1 13 6 -5 12 -7 -0 5 4 4 -0 10 5 -1 0 5 -0 2 -1 3 3
Height
3063 3064 3061 3066 3072 3076 3076 3078 3081 3082 3084 3084 3084 3084 3084 3085 3084 3084 3084 3084 3083 3083 3083 3082 3081 3079 3077 3076 3074 3072 3072 3076 3081 3085 3089 3092 3096 3102 3107 3112 3118 3124 3128 3135
3059 3055 3061 3066 3071 3073 3074 3074 3077 3080 3079 3080 3080 3079 3080 3080 3081 3081 3080 3080 3079 3080 3080 3080 3079 3078 3076 3074 3071 3065 3067 3070 3077 3082 3086 3091 3096 3099 3104 3110 3116 3121 3127 3132
3051 3054 3056 3061 3065 3067 3069 3069 3072 3076 3077 3076 3074 3073 3075 3077 3076 3077 3077 3077 3076 3076 3077 3077 3076 3076 3075 3073 3069 3064 3066 3070 3076 3080 3083 3088 3092 3097 3099 3105 3112 3116 3122 3127
3048 3051 3053 3054 3057 3063 3063 3066 3070 3072 3075 3074 3072 3069 3070 3072 3071 3072 3073 3074 3074 3073 3073 3074 3074 3074 3074 3073 3072 3068 3069 3072 3074 3076 3080 3083 3089 3093 3097 3101 3106 3110 3116 3121
3042 3043 3047 3050 3053 3058 3060 3064 3067 3069 3070 3070 3069 3070 3062 3065 3065 3066 3068 3070 3070 3070 3070 3071 3071 3071 3070 3071 3072 3072 3071 3073 3073 3074 3078 3080 3083 3089 3092 3097 3102 3105 3110 3116
3041 3042 3043 3047 3052 3056 3058 3062 3064 3066 3067 3065 3064 3067 3057 3060 3060 3061 3063 3065 3066 3066 3067 3068 3069 3069 3069 3070 3071 3072 3073 3073 3074 3076 3076 3076 3080 3085 3088 3093 3097 3101 3106 3111
3037 3037 3040 3044 3047 3050 3054 3058 3062 3064 3063 3056 3059 3061 3054 3055 3057 3057 3058 3060 3061 3062 3063 3065 3066 3068 3068 3069 3071 3072 3072 3074 3075 3075 3075 3077 3077 3082 3085 3090 3095 3100 3103 3105
3031 3034 3034 3037 3041 3044 3046 3051 3054 3056 3054 3053 3055 3053 3051 3052 3053 3054 3055 3055 3056 3058 3059 3061 3063 3066 3067 3068 3069 3070 3072 3074 3075 3075 3077 3078 3077 3079 3082 3087 3090 3094 3098 3101
3027 3029 3029 3033 3037 3041 3042 3044 3051 3051 3052 3053 3050 3049 3048 3049 3049 3050 3049 3049 3051 3053 3055 3058 3060 3063 3065 3066 3068 3069 3070 3071 3073 3074 3076 3077 3079 3081 3083 3085 3087 3089 3094 3097
3024 3026 3026 3029 3033 3036 3039 3043 3047 3048 3048 3049 3046 3047 3046 3046 3045 3046 3044 3044 3047 3049 3051 3054 3057 3059 3062 3064 3066 3067 3068 3070 3071 3072 3075 3077 3079 3081 3083 3085 3087 3089 3091 3093
3021 3024 3026 3027 3027 3029 3034 3036 3040 3041 3042 3041 3043 3043 3043 3042 3042 3043 3043 3043 3044 3046 3049 3051 3054 3056 3058 3059 3061 3063 3064 3066 3068 3069 3072 3074 3076 3078 3080 3081 3083 3085 3088 3090
3016 3019 3021 3024 3025 3028 3030 3032 3034 3035 3039 3039 3040 3038 3040 3042 3042 3042 3043 3043 3044 3044 3047 3049 3051 3053 3054 3056 3056 3057 3058 3060 3063 3065 3066 3068 3070 3072 3075 3078 3081 3083 3085 3086
3013 3016 3019 3022 3026 3024 3026 3029 3031 3032 3033 3032 3037 3037 3038 3039 3041 3040 3040 3042 3043 3044 3045 3047 3049 3050 3051 3052 3053 3053 3053 3055 3055 3058 3060 3062 3064 3065 3068 3072 3074 3074 3077 3078
3013 3014 3016 3017 3019 3021 3023 3024 3026 3026 3028 3029 3030 3034 3036 3036 3037 3038 3038 3038 3040 3040 3041 3042 3044 3045 3046 3047 3049 3049 3050 3050 3050 3051 3052 3055 3057 3059 3061 3063 3063 3065 3066 3066
3013 3013 3014 3015 3017 3018 3019 3021 3022 3022 3024 3025 3028 3028 3030 3031 3031 3031 3031 3032 3033 3033 3034 3036 3038 3039 3040 3042 3043 3043 3045 3045 3045 3046 3046 3047 3051 3052 3053 3054 3055 3056 3056 3057
3009 3011 3013 3014 3016 3016 3016 3017 3018 3018 3018 3019 3021 3022 3023 3025 3024 3024 3026 3026 3027 3029 3029 3030 3031 3031 3033 3035 3036 3037 3039 3039 3040 3040 3041 3043 3044 3046 3047 3047 3047 3047 3046 3046
3006 3007 3009 3011 3013 3013 3013 3013 3014 3014 3014 3014 3015 3017 3017 3017 3019 3019 3019 3020 3022 3022 3022 3023 3024 3025 3026 3027 3028 3030 3031 3032 3033 3034 3035 3036 3038 3039 3039 3039 3038 3037 3036 3036
3002 3004 3006 3007 3010 3010 3007 3008 3009 3011 3012 3013 3013 3012 3011 3010 3010 3011 3014 3012 3012 3014 3015 3016 3016 3017 3018 3018 3019 3021 3021 3023 3024 3026 3028 3028 3029 3030 3030 3029 3028 3028 3026 3025
2998 3001 3003 3005 3006 3004 3004 3004 3006 3007 3009 3007 3005 3005 3004 3003 3003 3005 3002 3000 3000 3002 3005 3006 3006 3007 3008 3009 3010 3012 3013 3014 3015 3016 3018 3020 3021 3021 3021 3020 3019 3018 3017 3016
2993 2997 3002 3003 3002 2999 2999 3000 3001 3003 3002 3000 2999 2997 2997 2996 2994 2995 2994 2990 2990 2993 2994 2996 2999 2998 2999 3001 3002 3002 3004 3005 3006 3007 3008 3009 3010 3010 3011 3010 3009 3008 3007 3006
2989 2993 2996 2998 2998 2995 2995 2997 2997 3000 3000 2995 2995 2993 2992 2991 2989 2988 2988 2985 2982 2983 2984 2986 2988 2991 2990 2992 2992 2993 2994 2994 2996 2997 2997 2998 2999 3000 3000 3000 3000 2998 2997 2997
2985 2989 2992 2995 2996 2994 2990 2992 2993 2993 2991 2991 2991 2989 2986 2986 2984 2980 2982 2980 2977 2975 2976 2976 2977 2979 2982 2981 2983 2982 2983 2984 2985 2986 2986 2986 2987 2988 2989 2989 2989 2988 2987 2986
2984 2984 2986 2989 2988 2988 2988 2988 2989 2988 2987 2985 2984 2984 2980 2980 2978 2975 2973 2973 2972 2969 2968 2968 2968 2970 2970 2971 2971 2971 2971 2972 2972 2974 2975 2975 2977 2978 2980 2979 2978 2977 2975 2974
2979 2981 2982 2984 2985 2985 2984 2984 2985 2985 2983 2981 2978 2978 2976 2976 2973 2970 2967 2966 2965 2964 2963 2963 2962 2963 2963 2962 2962 2963 2963 2965 2965 2966 2967 2966 2966 2968 2967 2966 2965 2965 2964 2964
2976 2976 2977 2977 2980 2980 2980 2979 2979 2980 2979 2978 2975 2972 2971 2970 2968 2964 2961 2960 2958 2955 2957 2957 2957 2956 2958 2958 2957 2957 2956 2957 2957 2956 2956 2955 2956 2957 2956 2956 2954 2953 2955 2956
2970 2971 2973 2973 2974 2975 2976 2974 2974 2973 2972 2971 2970 2968 2965 2963 2960 2959 2956 2955 2953 2952 2950 2950 2951 2948 2949 2950 2950 2950 2949 2947 2948 2947 2945 2946 2945 2946 2945 2946 2945 2945 2946 2945